Tracking 17694 objects as of 29-May-2016
HD Live streaming from Space Station
objects crossing your sky now

EUTE 7A (EUTE W3A)

Track EUTE 7A (EUTE W3A) now!
EUTE 7A (EUTE W3A) is classified as:


NORAD ID: 28187
Int'l Code: 2004-008A
Perigee: 35,777.0 km
Apogee: 35,811.1 km
Inclination: 0.1 °
Period: 1,436.1 minutes
Semi major axis: 42165 km
RCS: 29.9526 m2 (large)
Launch date: March 15, 2004
Source: European Telecommunications Satellite Organization (EUTE)
Launch site: TYURATAM MISSILE AND SPACE COMPLEX (TTMTR)

58 Ku-band transponders; covers whole of sub-Saharan Africa and provides connectivity to Europe and Middle East.
Your satellite tracking list
Your tracking list is empty





NASA's NSSDC Master Catalog

Two Line Element Set (TLE):
1 28187U 04008A   16149.02534706  .00000044  00000-0  00000+0 0  9993
2 28187   0.0665   9.9304 0004054  84.0274 168.1637  1.00270695 44750
Source of the keplerian elements: AFSPC

N2YO: 580